Location: Chmeln�
(49.6483°N, 14.9871°E)
Time: 08:41:32
(UTC+00:00)

NOSS 2-2 (E) - Pass Details

Date: 18 September 2020
Orbit: 468 x 1739 km, 63.3° (Epoch: 26 October)

Event Time Altitude Azimuth Distance (km) Brightness Sun altitude
Rises 19:13:09 0° 237° (WSW) 2,500 7.1 -20.5°
Reaches altitude 10° 19:15:11 10° 243° (WSW) 1,651 6.2 -20.8°
Maximum altitude 19:18:39 49° 320° (NW) 674 4.1 -21.3°
Drops below altitude 10° 19:22:46 10° 37° (NE) 1,956 6.1 -21.8°
Sets 19:25:23 0° 42° (NE) 3,029 7.0 -22.2°
